Location: Bay Harbour
(38.2612°N, 75.2555°W)
Time: 02:29:32
(UTC+00:00)

Cosmos 1812 Rocket - Pass Details

Date: 29 October 2020
Orbit: 605 x 632 km, 82.5° (Epoch: 02 December)

Event Time Altitude Azimuth Distance (km) Brightness Sun altitude
Rises 23:46:56 0° 191° (S) 2,890 7.2 -20.7°
Reaches altitude 10° 23:49:10 10° 193° (SSW) 1,984 6.3 -21.1°
Maximum altitude 23:53:33 71° 278° (W) 658 3.8 -22.0°
Drops below altitude 10° 23:57:56 10° 3° (N) 1,982 6.1 -22.8°
Sets 00:00:10 0° 5° (N) 2,887 7.0 -23.3°
